Location: Bouillancy
(49.1149°N, 2.9308°E)
Time: 07:49:07
(UTC+00:00)

H-2A R/B - Pass Details

Date: 30 September 2020
Orbit: 734 x 836 km, 98.2° (Epoch: 29 October)

Event Time Altitude Azimuth Distance (km) Brightness Sun altitude
Rises 19:40:20 0° 193° (SSW) 3,206 5.1 -22.0°
Reaches altitude 10° 19:42:50 10° 204° (SSW) 2,301 4.5 -22.4°
Maximum altitude 19:47:19 31° 266° (W) 1,342 3.8 -23.1°
Drops below altitude 10° 19:51:57 10° 328° (NNW) 2,376 5.3 -23.8°
Sets 19:54:36 0° 339° (NNW) 3,328 6.0 -24.2°
